COSMOS 2251 DEB, 36050

Orbit data source: Space-Track

COSMOS 2251 DEB, 36050 is space debris in LEO originally from a launch on Wed, 16 Jun 1993 UTC launched from the Plesetsk Missile And Space Complex (PKMTR). The debris from Iridium 33, an American commercial communications satellite, has been tracked extensively since its accidental collision with the defunct Russian satellite Cosmos 2251 in 2009. This event, occurring at high speed in low Earth orbit (LEO), generated thousands of pieces of space debris, significantly increasing the risk of further collisions. The Iridium 33 debris cloud has impacted space traffic management and orbital debris mitigation strategies, making it a subject of ongoing study in space situational awareness.

Loading next visibility...
Identifier
36050, 1993-036AXM
Orbit
LEO
Country
Flag of CISCIS
Related business
Manufacturer
Unknown
Mission
Spacecraft
Bus & Motor
Unknown
Mass
Unknown
Launch date (UTC)
1993-06-16 (33 years ago)
Launch vehicle
Unknown
Launch site
Plesetsk Missile And Space Complex (PKMTR)
Object type
Payload
Rocket body
Debris
Shape & HBR
Unknown shape, 0.1 m
Radar Cross Section
Small (<0.1 m²)

Expand to show TLE details & history
Last TLE update: 2 days ago

TLE from 2 days ago
0 COSMOS 2251 DEB
1 36050U 93036AXM 26119.13798212  .00004769  00000-0  32642-3 0  9993
2 36050  74.0300 273.6047 0083564 316.2708  43.1880 15.03553267690985
Epoch: 2026-04-29T03:18Z
TLE epoch observation values (Epoch: 2026-04-29T03:18:41.655Z)
Latitude
0.00001°
Longitude
6.82789°
Altitude
516.616 km
Speed
7.628 km/s
True Right ascension
18h 14m 25s
True Declination
0° 00' 00"
Sunlit
Object was in full shadow at epoch
Visualization orbit readout
Latitude
Unknown
Longitude
Unknown
Altitude
Unknown
Speed
Unknown
Apparent Right ascension
Unknown
Apparent Declination
Unknown
Sunlit
N/A
Visualization observer readout
Local Sidereal Time
13:50:31
Azimuth
Unknown
Elevation
Unknown
Doppler factor
Unknown
Orbital elements
Apogee altitude
611.424 km
Perigee altitude
495.577 km
Semi-major axis
6,931.637 km
Eccentricity
0.00836
Inclination
74.03°
RAAN
273.6047°
Arg. of periapsis
316.2708°
True anomaly
43.84837°
Mean anomaly
43.188°
Eccentric anomaly
43.51768°
Mean motion
3.76088 °/min
Orbital period
95.72 mins
BSTAR
0.00032642
Loading maneuver chart data...
Computing Atmospheric mass density...

Documentation

Showing up to 5 results
|